Year,Month,Day,Hour,Minute,Value (Times are PST for windgust in km/hr)
2019,08,26,00,00,9.60
2019,08,26,00,01,14.50
2019,08,26,00,02,16.10
2019,08,26,00,03,4.80
2019,08,26,00,04,3.20
2019,08,26,00,05,9.60
2019,08,26,00,06,16.10
2019,08,26,00,07,14.50
2019,08,26,00,08,19.30
2019,08,26,00,09,16.10
2019,08,26,00,10,16.10
2019,08,26,00,11,19.30
2019,08,26,00,12,17.70
2019,08,26,00,13,14.50
2019,08,26,00,14,14.50
2019,08,26,00,15,11.30
2019,08,26,00,16,9.60
2019,08,26,00,17,22.50
2019,08,26,00,18,12.90
2019,08,26,00,19,14.50
2019,08,26,00,20,22.50
2019,08,26,00,21,32.20
2019,08,26,00,22,22.50
2019,08,26,00,23,25.70
2019,08,26,00,24,17.70
2019,08,26,00,25,14.50
2019,08,26,00,26,30.60
2019,08,26,00,27,27.40
2019,08,26,00,28,24.20
2019,08,26,00,29,22.50
2019,08,26,00,30,24.20
2019,08,26,00,31,19.30
2019,08,26,00,32,27.40
2019,08,26,00,33,32.20
2019,08,26,00,34,11.30
2019,08,26,00,35,17.70
2019,08,26,00,36,6.40
2019,08,26,00,37,20.90
2019,08,26,00,38,9.60
2019,08,26,00,39,17.70
2019,08,26,00,40,17.70
2019,08,26,00,41,9.60
2019,08,26,00,42,8.10
2019,08,26,00,43,11.30
2019,08,26,00,44,12.90
2019,08,26,00,45,20.90
2019,08,26,00,46,19.30
2019,08,26,00,47,20.90
2019,08,26,00,48,24.20
2019,08,26,00,49,24.20
2019,08,26,00,50,24.20
2019,08,26,00,51,22.50
2019,08,26,00,52,17.70
2019,08,26,00,53,9.60
2019,08,26,00,54,17.70
2019,08,26,00,55,14.50
2019,08,26,00,56,17.70
2019,08,26,00,57,20.90
2019,08,26,00,58,14.50
2019,08,26,00,59,30.60
2019,08,26,01,00,17.70
2019,08,26,01,01,16.10
2019,08,26,01,02,12.90
2019,08,26,01,03,14.50
2019,08,26,01,04,8.10
2019,08,26,01,05,4.80
2019,08,26,01,06,8.10
2019,08,26,01,07,8.10
2019,08,26,01,08,9.60
2019,08,26,01,09,14.50
2019,08,26,01,10,17.70
2019,08,26,01,11,16.10
2019,08,26,01,12,16.10
2019,08,26,01,13,24.20
2019,08,26,01,14,14.50
2019,08,26,01,15,19.30
2019,08,26,01,16,17.70
2019,08,26,01,17,6.40
2019,08,26,01,18,4.80
2019,08,26,01,19,9.60
2019,08,26,01,20,6.40
2019,08,26,01,21,8.10
2019,08,26,01,22,8.10
2019,08,26,01,23,9.60
2019,08,26,01,24,8.10
2019,08,26,01,25,9.60
2019,08,26,01,26,3.20
2019,08,26,01,27,14.50
2019,08,26,01,28,8.10
2019,08,26,01,29,6.40
2019,08,26,01,30,9.60
2019,08,26,01,31,14.50
2019,08,26,01,32,17.70
2019,08,26,01,33,16.10
2019,08,26,01,34,9.60
2019,08,26,01,35,17.70
2019,08,26,01,36,20.90
2019,08,26,01,37,11.30
2019,08,26,01,38,9.60
2019,08,26,01,39,17.70
2019,08,26,01,40,17.70
2019,08,26,01,41,11.30
2019,08,26,01,42,14.50
2019,08,26,01,43,6.40
2019,08,26,01,44,6.40
2019,08,26,01,45,3.20
2019,08,26,01,48,8.10
2019,08,26,01,49,6.40
2019,08,26,01,50,3.20
2019,08,26,01,51,1.60
2019,08,26,01,52,1.60
2019,08,26,01,53,3.20
2019,08,26,01,54,3.20
2019,08,26,01,55,1.60
2019,08,26,01,59,3.20
2019,08,26,02,00,3.20
2019,08,26,02,02,9.60
2019,08,26,02,03,8.10
2019,08,26,02,04,8.10
2019,08,26,02,05,14.50
2019,08,26,02,18,11.30
2019,08,26,02,21,4.80
2019,08,26,02,22,3.20
2019,08,26,02,24,6.40
2019,08,26,02,25,6.40
2019,08,26,02,26,3.20
2019,08,26,02,29,8.10
2019,08,26,02,30,8.10
2019,08,26,02,31,3.20
2019,08,26,02,33,8.10
2019,08,26,02,34,4.80
2019,08,26,02,39,6.40
2019,08,26,02,40,1.60
2019,08,26,02,42,14.50
2019,08,26,02,43,4.80
2019,08,26,02,44,1.60
2019,08,26,02,52,9.60
2019,08,26,02,53,4.80
2019,08,26,02,54,1.60
2019,08,26,02,55,14.50
2019,08,26,02,57,14.50
2019,08,26,02,58,8.10
2019,08,26,02,59,9.60
2019,08,26,03,07,6.40
2019,08,26,03,11,6.40
2019,08,26,03,12,6.40
2019,08,26,03,13,4.80
2019,08,26,03,14,3.20
2019,08,26,03,16,8.10
2019,08,26,03,17,3.20
2019,08,26,03,18,3.20
2019,08,26,03,19,4.80
2019,08,26,03,20,6.40
2019,08,26,03,21,8.10
2019,08,26,03,22,14.50
2019,08,26,03,25,4.80
2019,08,26,03,26,14.50
2019,08,26,03,27,9.60
2019,08,26,03,28,9.60
2019,08,26,03,29,3.20
2019,08,26,03,35,4.80
2019,08,26,03,36,6.40
2019,08,26,03,37,6.40
2019,08,26,03,39,4.80
2019,08,26,03,40,4.80
2019,08,26,03,41,4.80
2019,08,26,03,42,6.40
2019,08,26,03,43,6.40
2019,08,26,03,45,9.60
2019,08,26,03,46,9.60
2019,08,26,03,47,4.80
2019,08,26,03,48,6.40
2019,08,26,03,49,8.10
2019,08,26,06,19,8.10
2019,08,26,06,20,19.30
2019,08,26,06,21,9.60
2019,08,26,06,22,14.50
2019,08,26,06,23,11.30
2019,08,26,06,24,22.50
2019,08,26,06,25,40.20
2019,08,26,06,26,17.70
2019,08,26,06,27,17.70
2019,08,26,06,28,19.30
2019,08,26,06,29,8.10
2019,08,26,06,30,14.50
2019,08,26,06,31,4.80
2019,08,26,06,33,1.60
2019,08,26,06,38,16.10
2019,08,26,06,39,8.10
2019,08,26,06,40,16.10
2019,08,26,06,41,17.70
2019,08,26,06,42,11.30
2019,08,26,06,43,9.60
2019,08,26,06,44,12.90
2019,08,26,06,45,11.30
2019,08,26,06,46,14.50
2019,08,26,06,47,8.10
2019,08,26,06,48,19.30
2019,08,26,06,49,4.80
2019,08,26,06,50,4.80
2019,08,26,06,51,9.60
2019,08,26,06,52,22.50
2019,08,26,06,53,17.70
2019,08,26,06,54,4.80
2019,08,26,06,55,6.40
2019,08,26,06,56,3.20
2019,08,26,06,57,16.10
2019,08,26,06,58,16.10
2019,08,26,06,59,11.30
2019,08,26,07,00,16.10
2019,08,26,07,01,17.70
2019,08,26,07,02,24.20
2019,08,26,07,03,19.30
2019,08,26,07,04,19.30
2019,08,26,07,05,17.70
2019,08,26,07,06,20.90
2019,08,26,07,07,30.60
2019,08,26,07,08,37.00
2019,08,26,07,09,25.70
2019,08,26,07,10,25.70
2019,08,26,07,11,17.70
2019,08,26,07,12,6.40
2019,08,26,07,13,27.40
2019,08,26,07,15,3.20
2019,08,26,07,16,17.70
2019,08,26,07,17,20.90
2019,08,26,07,18,16.10
2019,08,26,07,19,16.10
2019,08,26,07,20,4.80
2019,08,26,07,21,20.90
2019,08,26,07,22,19.30
2019,08,26,07,23,14.50
2019,08,26,07,24,11.30
2019,08,26,07,25,9.60
2019,08,26,07,26,8.10
2019,08,26,07,27,14.50
2019,08,26,07,28,14.50
2019,08,26,07,29,9.60
2019,08,26,07,30,11.30
2019,08,26,07,31,1.60
2019,08,26,07,34,1.60
2019,08,26,07,36,8.10
2019,08,26,07,37,9.60
2019,08,26,07,39,4.80
2019,08,26,07,40,8.10
2019,08,26,07,41,1.60
2019,08,26,07,42,3.20
2019,08,26,07,43,6.40
2019,08,26,07,50,14.50
2019,08,26,07,51,27.40
2019,08,26,07,52,27.40
2019,08,26,07,53,19.30
2019,08,26,07,54,27.40
2019,08,26,07,55,14.50
2019,08,26,07,56,27.40
2019,08,26,07,57,22.50
2019,08,26,07,58,20.90
2019,08,26,07,59,12.90
2019,08,26,08,00,1.60
2019,08,26,08,01,6.40
2019,08,26,19,46,1.60
2019,08,26,19,49,19.30
2019,08,26,19,50,20.90
2019,08,26,19,51,20.90
2019,08,26,19,52,17.70
2019,08,26,19,53,9.60
2019,08,26,19,54,25.70
2019,08,26,19,55,17.70
2019,08,26,19,56,14.50
2019,08,26,19,57,27.40
2019,08,26,19,58,29.00
2019,08,26,19,59,14.50
2019,08,26,20,00,24.20
2019,08,26,20,01,22.50
2019,08,26,20,02,19.30
2019,08,26,20,03,9.60
2019,08,26,20,04,9.60
2019,08,26,20,05,16.10
2019,08,26,20,06,25.70
2019,08,26,20,07,27.40
2019,08,26,20,08,24.20
2019,08,26,20,09,32.20
2019,08,26,20,10,49.90
2019,08,26,20,11,32.20
2019,08,26,20,12,6.40
2019,08,26,20,13,1.60
2019,08,26,20,15,20.90
2019,08,26,20,16,27.40
2019,08,26,20,17,16.10
2019,08,26,20,18,20.90
2019,08,26,20,19,16.10
2019,08,26,20,20,27.40
2019,08,26,20,21,19.30
2019,08,26,20,22,30.60
2019,08,26,20,23,24.20
2019,08,26,20,24,30.60
2019,08,26,20,25,37.00
2019,08,26,20,26,40.20
2019,08,26,20,27,25.70
2019,08,26,20,28,30.60
2019,08,26,20,29,12.90
2019,08,26,20,30,43.50
2019,08,26,20,31,20.90
2019,08,26,20,32,33.80
2019,08,26,20,33,32.20
2019,08,26,20,34,30.60
2019,08,26,20,35,27.40
2019,08,26,20,36,46.70
2019,08,26,20,37,19.30
2019,08,26,20,38,22.50
2019,08,26,20,39,20.90
2019,08,26,20,40,32.20
2019,08,26,20,41,24.20
2019,08,26,20,42,32.20
2019,08,26,20,43,17.70
2019,08,26,20,44,16.10
2019,08,26,20,45,32.20
2019,08,26,20,46,24.20
2019,08,26,20,47,19.30
2019,08,26,20,48,25.70
2019,08,26,20,49,32.20
2019,08,26,20,50,17.70
2019,08,26,20,51,37.00
2019,08,26,20,52,11.30
2019,08,26,20,53,29.00
2019,08,26,20,54,33.80
2019,08,26,20,55,20.90
2019,08,26,20,56,19.30
2019,08,26,20,57,9.60
2019,08,26,20,58,11.30
2019,08,26,20,59,14.50
2019,08,26,21,00,17.70
2019,08,26,21,01,8.10
2019,08,26,21,03,11.30
2019,08,26,21,04,20.90
2019,08,26,21,05,19.30
2019,08,26,21,06,19.30
2019,08,26,21,07,27.40
2019,08,26,21,08,27.40
2019,08,26,21,09,29.00
2019,08,26,21,10,22.50
2019,08,26,21,11,19.30
2019,08,26,21,12,19.30
2019,08,26,21,13,24.20
2019,08,26,21,14,20.90
2019,08,26,21,15,32.20
2019,08,26,21,16,20.90
2019,08,26,21,17,27.40
2019,08,26,21,18,30.60
2019,08,26,21,19,25.70
2019,08,26,21,20,37.00
2019,08,26,21,21,19.30
2019,08,26,21,22,27.40
2019,08,26,21,23,24.20
2019,08,26,21,24,27.40
2019,08,26,21,25,20.90
2019,08,26,21,26,37.00
2019,08,26,21,27,27.40
2019,08,26,21,28,30.60
2019,08,26,21,29,19.30
2019,08,26,21,30,16.10
2019,08,26,21,31,11.30
2019,08,26,21,32,22.50
2019,08,26,21,33,17.70
2019,08,26,21,34,20.90
2019,08,26,21,35,17.70
2019,08,26,21,36,17.70
2019,08,26,21,37,11.30
2019,08,26,21,38,17.70
2019,08,26,21,39,17.70
2019,08,26,21,40,14.50
2019,08,26,21,41,17.70
2019,08,26,21,42,17.70
2019,08,26,21,43,16.10
2019,08,26,21,44,14.50
2019,08,26,21,45,6.40
2019,08,26,21,46,6.40
2019,08,26,21,47,14.50
2019,08,26,21,48,9.60
2019,08,26,21,49,4.80
2019,08,26,21,50,9.60
2019,08,26,21,51,11.30
2019,08,26,21,52,11.30
2019,08,26,21,53,17.70
2019,08,26,21,54,16.10
2019,08,26,21,55,14.50
2019,08,26,21,56,6.40
2019,08,26,21,57,20.90
2019,08,26,21,58,6.40
2019,08,26,21,59,11.30
2019,08,26,22,00,8.10
2019,08,26,22,01,6.40
2019,08,26,22,02,4.80
2019,08,26,22,03,8.10
2019,08,26,22,04,4.80
2019,08,26,22,05,6.40
2019,08,26,22,06,14.50
2019,08,26,22,07,6.40
2019,08,26,22,08,3.20
2019,08,26,22,09,4.80
2019,08,26,22,10,11.30
2019,08,26,22,11,3.20
2019,08,26,22,12,4.80
2019,08,26,22,13,6.40
2019,08,26,22,14,25.70
2019,08,26,22,15,62.70
2019,08,26,22,16,35.40
2019,08,26,22,17,38.60
2019,08,26,22,18,66.00
2019,08,26,22,19,45.10
2019,08,26,22,20,37.00
2019,08,26,22,21,30.60
2019,08,26,22,22,29.00
2019,08,26,22,23,33.80
2019,08,26,22,24,25.70
2019,08,26,22,25,56.30
2019,08,26,22,26,11.30
2019,08,26,22,27,1.60
2019,08,26,22,28,25.70
2019,08,26,22,29,53.10
2019,08,26,22,30,75.60
2019,08,26,22,31,70.80
2019,08,26,22,32,53.10
2019,08,26,22,33,57.90
2019,08,26,22,34,56.30
2019,08,26,22,35,77.30
2019,08,26,22,36,61.20
2019,08,26,22,37,66.00
2019,08,26,22,38,54.70
2019,08,26,22,39,29.00
2019,08,26,22,40,27.40
2019,08,26,22,41,67.60
2019,08,26,22,42,49.90
2019,08,26,22,43,48.30
2019,08,26,22,44,40.20
2019,08,26,22,45,16.10
2019,08,26,22,46,95.00
2019,08,26,22,47,90.10
2019,08,26,22,48,66.00
2019,08,26,22,49,27.40
2019,08,26,22,50,30.60
2019,08,26,22,51,27.40
2019,08,26,22,52,41.80
2019,08,26,22,53,32.20
2019,08,26,22,54,66.00
2019,08,26,22,55,85.30
2019,08,26,22,56,78.80
2019,08,26,22,57,64.40
2019,08,26,22,58,43.50
2019,08,26,22,59,49.90
2019,08,26,23,00,53.10
2019,08,26,23,01,70.80
2019,08,26,23,02,48.30
2019,08,26,23,03,51.50
2019,08,26,23,04,43.50
2019,08,26,23,05,38.60
2019,08,26,23,06,37.00
2019,08,26,23,07,29.00
2019,08,26,23,08,30.60
2019,08,26,23,09,25.70
2019,08,26,23,10,30.60
2019,08,26,23,11,24.20
2019,08,26,23,12,30.60
2019,08,26,23,13,27.40
2019,08,26,23,14,32.20
2019,08,26,23,15,49.90
2019,08,26,23,16,46.70
2019,08,26,23,17,27.40
2019,08,26,23,18,35.40
2019,08,26,23,19,40.20
2019,08,26,23,20,40.20
2019,08,26,23,21,46.70
2019,08,26,23,22,43.50
2019,08,26,23,23,57.90
2019,08,26,23,24,45.10
2019,08,26,23,25,57.90
2019,08,26,23,26,61.20
2019,08,26,23,27,35.40
2019,08,26,23,28,32.20
2019,08,26,23,29,46.70
2019,08,26,23,30,37.00
2019,08,26,23,31,49.90
2019,08,26,23,32,54.70
2019,08,26,23,33,46.70
2019,08,26,23,34,38.60
2019,08,26,23,35,24.20
2019,08,26,23,36,29.00
2019,08,26,23,37,40.20
2019,08,26,23,38,24.20
2019,08,26,23,39,51.50
2019,08,26,23,40,45.10
2019,08,26,23,41,35.40
2019,08,26,23,42,30.60
2019,08,26,23,43,29.00
2019,08,26,23,44,17.70
2019,08,26,23,45,24.20
2019,08,26,23,46,11.30
2019,08,26,23,47,11.30
2019,08,26,23,48,19.30
2019,08,26,23,49,11.30
2019,08,26,23,50,20.90
2019,08,26,23,51,19.30
2019,08,26,23,52,35.40
2019,08,26,23,53,27.40
2019,08,26,23,54,53.10
2019,08,26,23,55,41.80
2019,08,26,23,56,33.80
2019,08,26,23,57,29.00
2019,08,26,23,58,38.60
2019,08,26,23,59,32.20
